星链-36984(STARLINK-36984)

导读

STARLINK-36984(NORAD编号68168)是美国SpaceX公司星链(Starlink)星座中的低轨通信卫星,属于Starlink卫星互联网项目的组网卫星,依托近地轨道部署,为全球提供高速宽带互联网服务。该卫星搭载相控阵天线与星间激光链路技术,可实现高容量、低延迟通信,单星支持多用户同时连接,提升频谱利用效率。目前Starlink整体项目计划在2026年降低包括该星在内的数千颗卫星轨道高度至480公里,以减少太空碰撞风险,提升太空运行安全性。

基本信息
目录编号:
68168
目录名称:
STARLINK-36984
国际标识:
2026-050B
轨道中心:
EARTH
卫星名称:
星链-36984
卫星全名:
星链-36984(STARLINK-36984)
卫星状态:
在轨 (已飞行174 天)
发射日期:
2026-03-14 UTC
国别 :
美国 (US)
星等 :
--
轨道信息
数据来源 国际轨道数据
星历时间: 2026-09-04T02:46:04+0800
14小时前
查看轨道信息
半长轴: 6840.821km
偏心率: 0.0002698
轨道倾角: 53.157°
近地点辐角 70.450°
升交点赤经 155.734°
平近点角 289.680°
近地点: 460.838km
远地点: 464.53km
周期: 93.847分钟
每日圈数: 15.344068
详细信息
固有亮度:
5
最大亮度:
2.5
卫星平台:
Starlink V1.0
覆盖范围:
全球
运营商:
太空探索技术公司
运营商所在国:
美国
制造商(研发单位):
太空探索技术公司
制造商所在国:
美国
使用方式:
暂无
卫星简介
Starlink 计划是 SpaceX 推出的全球卫星互联网项目,通过发射低轨道卫星,为全球尤其是偏远地区提供高速、低延迟的互联网服务。自 2019 年起,Starlink 已部署数千颗卫星,旨在缩小全球数字鸿沟,推动互联网普及。该项目还为军事、航空等行业提供通信支持,带来广泛经济效益。
2D轨道图
3D轨道图
轨道高度分析图
轨道倾角分析图
轨道综合分析图
查看轨道综合分析图
交会数据列表
事件ID 空间交会对象 最接近时刻(TCA) 交会距离 交会风险概率(CRP) 交会风险指数(CRI) 操作
CDM_260903-203306-809806-816822
2026-09-03T
20:33:47+0000
0.624 km
远距离
4.476699E-5 中风险 0.68
CDM_260906-063705-893706-816821
2026-09-06T
06:37:17+0000
1.987 km
极远距离
1.451283E-6 低风险 0.38
CDM_260905-011705-210806-816821
2026-09-05T
01:17:34+0000
2.712 km
极远距离
1.368276E-6 低风险 0.38
CDM_260906-091405-247606-816821
2026-09-06T
09:14:52+0000
2.870 km
极远距离
1.263522E-6 低风险 0.37
CDM_260906-082705-248206-816821
2026-09-06T
08:27:47+0000
2.896 km
极远距离
1.248851E-6 低风险 0.37
CDM_260905-055903-644106-816821
2026-09-05T
05:59:33+0000
2.380 km
极远距离
7.460898E-7 极低风险 0.32
CDM_260903-212006-809806-816821
2026-09-03T
21:20:39+0000
2.515 km
极远距离
7.358385E-7 极低风险 0.32